This demonstration page uses our WeatherBlox Daily Observations layout. Learn more.

40.92945, -100.16068

Hourly Observations for November 18, 2020

Temp ( °F °C ) Dew Point ( °F °C ) Humidity (%) Winds ( mph kmh ) Pressure ( in mb ) Visibility ( mi km ) Precip ( " mm )
12:15 am 00:15 Clear 47 8.6 29 -1.9 48 48 S 12 19 30.05 1018 10 16.0934 0 0
12:35 am 00:35 Clear 47 8.4 28 -2 48 48 SSE 7 11 30.06 1018 10 16.0934 0 0
12:55 am 00:55 Clear 47 8.2 28 -2.1 49 49 S 13 20 30.05 1018 10 16.0934 0 0
1:15 am 01:15 Clear 45 7.3 28 -2.1 52 52 S 13 20 30.05 1017 10 16.0934 0 0
1:35 am 01:35 Clear 44 6.5 28 -2.2 54 54 S 8 13 30.04 1017 10 16.0934 0 0
1:55 am 01:55 Clear 44 6.5 28 -2.5 53 53 SSE 7 11 30.05 1018 10 16.0934 0 0
2:15 am 02:15 Clear 42 5.8 28 -2.5 56 56 SE 3 6 30.06 1018 10 16.0934 0 0
2:35 am 02:35 Clear 40 4.6 28 -2.5 60 60 SSE 8 13 30.05 1018 10 16.0934 0 0
2:55 am 02:55 Clear 39 4.1 28 -2.5 63 63 SSE 8 13 30.05 1017 10 16.0934 0 0
3:15 am 03:15 Clear 39 4 28 -2.4 63 63 SE 6 9 30.04 1017 10 16.0934 0 0
3:35 am 03:35 Clear 38 3.3 28 -2.5 66 66 SSE 8 13 30.03 1017 10 16.0934 0 0
3:55 am 03:55 Clear 37 3 27 -2.6 67 67 SSE 6 9 30.03 1017 10 16.0934 0 0
4:15 am 04:15 Clear 37 2.9 28 -2.5 68 68 SSE 5 7 30.02 1017 10 16.0934 0 0
4:35 am 04:35 Clear 38 3.2 28 -2.3 68 68 SE 6 9 30.02 1016 10 16.0934 0 0
4:55 am 04:55 Clear 38 3.2 28 -2.2 68 68 SSE 6 9 30.01 1016 10 16.0934 0 0
5:15 am 05:15 Clear 36 2.4 28 -2.5 70 70 SSE 5 7 30.01 1016 10 16.0934 0 0
5:35 am 05:35 Clear 31 -0.5 25 -3.7 79 79 NE 3 6 30.03 1017 10 16.0934 0 0
5:55 am 05:55 Clear 31 -0.8 25 -3.7 81 81 E 5 7 30.03 1017 10 16.0934 0 0
6:15 am 06:15 Clear 29 -1.9 24 -4.2 84 84 E 6 9 30.05 1017 10 16.0934 0 0
6:35 am 06:35 Clear 29 -1.5 25 -4 83 83 Calm 30.04 1017 10 16.0934 0 0
6:55 am 06:55 Clear 31 -0.8 25 -4 79 79 S 3 6 30.02 1017 10 16.0934 0 0
7:15 am 07:15 Clear 30 -1.1 25 -3.9 82 82 SSW 5 7 30.03 1017 10 16.0934 0 0
7:35 am 07:35 Sunny 28 -2.5 24 -4.4 87 87 WNW 3 6 30.04 1017 10 16.0934 0 0
7:55 am 07:55 Sunny 28 -2.5 24 -4.3 88 88 NW 5 7 30.04 1017 10 16.0934 0 0
8:15 am 08:15 Sunny 30 -1.1 26 -3.3 85 85 Calm 30.02 1017 10 16.0934 0 0
8:35 am 08:35 Sunny 32 0 28 -2.2 85 85 Calm 30.01 1016 10 16.0934 0 0
8:55 am 08:55 Sunny 34 0.9 29 -1.6 84 84 Calm 29.99 1015 10 16.0934 0 0
9:15 am 09:15 Sunny 36 2.4 30 -1 79 79 Calm 29.97 1015 10 16.0934 0 0
9:35 am 09:35 Sunny 38 3.4 31 -0.5 76 76 Calm 29.97 1015 10 16.0934 0 0
9:55 am 09:55 Sunny 41 4.8 32 0 71 71 Calm 29.96 1015 10 16.0934 0 0
10:15 am 10:15 Sunny 42 5.8 32 0 67 67 Calm 29.95 1014 10 16.0934 0 0
10:35 am 10:35 Sunny 45 7.3 33 0.4 62 62 Calm 29.94 1014 10 16.0934 0 0
10:55 am 10:55 Sunny 49 9.5 33 0.4 53 53 S 5 7 29.91 1013 10 16.0934 0 0
11:15 am 11:15 Sunny 53 11.4 32 0.1 46 46 SSW 6 9 29.89 1012 10 16.0934 0 0
11:35 am 11:35 Sunny 55 12.5 32 0 43 43 SSW 6 9 29.88 1012 10 16.0934 0 0
11:55 am 11:55 Sunny 56 13.6 32 0.1 40 40 SW 8 13 29.86 1011 10 16.0934 0 0
12:15 pm 12:15 Sunny 58 14.5 32 0 37 37 SW 8 13 29.84 1011 10 16.0934 0 0
12:35 pm 12:35 Sunny 60 15.4 32 0 35 35 SSW 9 15 29.81 1010 10 16.0934 0 0
12:55 pm 12:55 Sunny 61 16.2 31 -0.3 33 33 S 10 17 29.8 1009 10 16.0934 0 0
1:15 pm 13:15 Sunny 62 16.5 31 -0.5 32 32 SSW 9 15 29.79 1009 10 16.0934 0 0
1:35 pm 13:35 Sunny 63 17.2 31 -0.4 30 30 SSW 8 13 29.78 1008 10 16.0934 0 0
1:55 pm 13:55 Sunny 64 17.8 31 -0.6 29 29 SSW 9 15 29.77 1008 10 16.0934 0 0
2:15 pm 14:15 Sunny 64 17.6 31 -0.5 29 29 S 7 11 29.76 1008 10 16.0934 0 0
2:35 pm 14:35 Sunny 64 18 31 -0.8 28 28 S 10 17 29.76 1008 10 16.0934 0 0
2:55 pm 14:55 Sunny 65 18.6 29 -1.7 25 25 S 13 20 29.75 1008 10 16.0934 0 0
3:15 pm 15:15 Sunny 64 18 28 -2 26 26 S 12 19 29.76 1008 10 16.0934 0 0
3:35 pm 15:35 Sunny 63 17 30 -1.1 29 29 S 9 15 29.77 1008 10 16.0934 0 0
3:55 pm 15:55 Sunny 61 16.2 31 -0.5 32 32 S 7 11 29.78 1008 10 16.0934 0 0
4:15 pm 16:15 Sunny 60 15.8 31 -0.5 33 33 S 8 13 29.77 1008 10 16.0934 0 0
4:35 pm 16:35 Sunny 59 15.1 32 -0.1 36 36 SSE 8 13 29.78 1008 10 16.0934 0 0
4:55 pm 16:55 Sunny 57 14.1 31 -0.5 37 37 SSE 8 13 29.78 1009 10 16.0934 0 0
5:15 pm 17:15 Sunny 56 13.4 31 -0.5 39 39 SSE 9 15 29.78 1008 10 16.0934 0 0
5:35 pm 17:35 Clear 57 14 30 -1 36 36 SSE 8 13 29.78 1008 10 16.0934 0 0
5:55 pm 17:55 Clear 59 15.2 29 -1.6 32 32 ESE 3 6 29.76 1008 10 16.0934 0 0
6:15 pm 18:15 Clear 49 9.4 31 -0.7 50 50 E 7 11 29.8 1009 10 16.0934 0 0
6:35 pm 18:35 Clear 52 11.3 30 -0.9 43 43 SE 7 11 29.76 1008 10 16.0934 0 0
6:55 pm 18:55 Clear 52 10.9 31 -0.6 45 45 SE 3 6 29.78 1009 10 16.0934 0 0
7:15 pm 19:15 Clear 53 11.8 31 -0.7 42 42 Calm 29.77 1008 10 16.0934 0 0
7:35 pm 19:35 Clear 56 13.5 32 0 40 40 Calm 29.76 1008 10 16.0934 0 0
7:55 pm 19:55 Clear 46 7.8 32 -0.1 58 58 Calm 29.81 1010 10 16.0934 0 0
8:15 pm 20:15 Clear 51 10.8 34 1.3 52 52 SE 3 6 29.77 1008 10 16.0934 0 0
8:35 pm 20:35 Clear 56 13.3 40 4.2 54 54 S 12 19 29.74 1007 10 16.0934 0 0
8:55 pm 20:55 Clear 56 13.2 39 4 54 54 S 9 15 29.75 1008 10 16.0934 0 0
9:15 pm 21:15 Clear 54 12.2 39 4 58 58 S 9 15 29.75 1007 10 16.0934 0 0
9:35 pm 21:35 Clear 51 10.8 39 4 63 63 S 6 9 29.76 1008 10 16.0934 0 0
9:55 pm 21:55 Clear 52 11 39 4 62 62 S 5 7 29.75 1008 10 16.0934 0 0
10:15 pm 22:15 Clear 51 10.6 39 3.9 64 64 S 6 9 29.76 1008 10 16.0934 0 0
10:35 pm 22:35 Clear 51 10.4 39 3.8 64 64 Calm 29.76 1008 10 16.0934 0 0
10:55 pm 22:55 Clear 50 9.8 38 3.4 65 65 Calm 29.76 1008 10 16.0934 0 0
11:15 pm 23:15 Clear 46 8 37 2.9 70 70 Calm 29.78 1008 10 16.0934 0 0
11:35 pm 23:35 Clear 52 11.2 38 3.3 59 59 SW 10 17 29.75 1007 10 16.0934 0 0
11:55 pm 23:55 Clear 53 11.6 38 3.5 58 58 SSW 9 15 29.74 1007 10 16.0934 0 0

Powered by AerisWeather